Terminal Aerodrome Forecast
Issued by NWS

Home | Current Version | Previous Version | Text Only | Print | Product List | Glossary On
Versions: 1 2 3 4 5 6 7 8 9 10 11 12 13 14 15 16 17 18 19
000
FTUS46 KSEW 112300
TAFHQM
TAF
KHQM 112320Z 1200/1224 22014KT P6SM SCT005 BKN200
      TEMPO 1200/1204 5SM BR BKN005
     FM120400 23012KT 5SM BR OVC005
     FM121000 25005KT 3SM BR OVC003
     FM121700 VRB03KT P6SM SKC=

USA.gov is the U.S. government's official web portal to all federal, state and local government web resources and services.